Location: Lake Arresoe
(56.0000°N, 12.5000°E)
Time: 09:32:40
(UTC+02:00)

Resurs 1-4 Rocket - Pass Details

Date: 22 August 2020
Orbit: 799 x 815 km, 98.6° (Epoch: 23 September)

Event Time Altitude Azimuth Distance (km) Brightness Sun altitude
Rises 02:17:50 0° 19° (NNE) 3,328 6.9 -21.0°
Reaches altitude 10° 02:20:20 10° 27° (NNE) 2,391 5.7 -20.9°
Maximum altitude 02:25:18 40° 97° (E) 1,173 3.0 -20.6°
Enters shadow 02:27:40 26° 147° (SSE) 1,539 3.2 -20.5°
